If you wish to contribute or participate in the discussions about articles you are invited to join SKYbrary as a registered user

 Actions

Kaohsiung International Airport

From SKYbrary Wiki

RCKH
Airport
ICAO: RCKH – IATA: KHH
Summary
Name Kaohsiung International Airport
Region Asia and Pacific
Territory Taiwan TW.gif
Location Kaohsiung City
Serving Kaohsiung City
Elevation 9 m
29.528 ft
29.528 ft9 m
Coordinates 22° 34' 30.26" N, 120° 21' 1.10" E
Runways
Designator Length Width Surface ROPS
9/27 3150 m10,334.646 ft
60 m196.85 ft
CON yes/yes


METAR
Observation RCKH 252230Z 10002KT 7000 FEW012 SCT220 20/17 Q1017 NOSIG RMK A3005
Station Kaohsiung International Airport
Date/Time 25 February 2020 22:30:00
Wind direction 100°
Wind speed 02 kts
Lowest cloud amount few clouds
Temperature 20°C
Dew point 17°C
Humidity 82%
QNH 1017 hPa
Weather condition n/a

Kaohsiung International Airport

ICAO: RCKH IATA: KHH

Description

Kaohsiung International Airport, also known as Kaohsiung Siaogang Airport for the Siaogang District where it is located, is a medium-sized commercial airport located in Kaohsiung City, Taiwan.

Climatology

Tropical Savanna climate (Köppen climate classification Aw) - monthly mean temperature above 18°C64.4 °F
291.15 K
524.07 °R
in every month of the year and a pronounced dry season.

Maps

Terrain

Loading map...

Airport Layout

Loading map...


Accidents & Serious Incidents at or in vicinity of RCKH

None on SKYbrary